Weather History for KTCM - November, 2013

Change the Weather History Date:

Saturday, November 2, 2013

  Actual Average Record
Temperature  
Mean Temperature 48 °F -  
Max Temperature 53 °F 53 °F 68 °F (1970)
Min Temperature 44 °F 34 °F 17 °F (2002)
Degree Days  
Heating Degree Days 16    
Moisture  
Dew Point 47 °F    
Average Humidity 92    
Maximum Humidity 100    
Minimum Humidity 61    
Precipitation  
Precipitation 0.52 in - - ()
Sea Level Pressure  
Sea Level Pressure 29.70 in    
Wind  
Wind Speed 13 mph (SSW)    
Max Wind Speed 28 mph    
Max Gust Speed 39 mph    
Visibility 9 miles    
Events Rain    
Averages and records for this station are not official NWS values.
T = Trace of Precipitation, MM = Missing Value Source: NWS Daily Summary

Daily Weather History Graph

Daily Weather History Graph

Search for Another Location

Airport or City:

Trip Planner

Search our weather history database for the weather conditions in past years. The results will help you decide how hot, cold, wet, or windy it might be!

Date:

Astronomy

Nov. 02, 2013 Rise Set
Actual Time 7:54 AM PDT 5:51 PM PDT
Civil Twilight 7:22 AM PDT 6:23 PM PDT
Nautical Twilight 6:46 AM PDT 6:59 PM PDT
Astronomical Twilight 6:11 AM PDT 7:34 PM PDT
Moon 6:55 AM PDT (11/2) 5:27 PM PDT (11/2)
Length of Visible Light 11h 00m
Length of Day
9h 56m
Waning Crescent, 1% of the Moon is Illuminated
Nov 2
Waning Crescent
Nov 3
New
Nov 9
First Quarter
Nov 17
Full
Nov 25
Last Quarter

Hourly Weather History & Observations

Time (PDT) Temp. Windchill Dew Point Humidity Pressure Visibility Wind Dir Wind Speed Gust Speed Precip Events Conditions
12:03 AM 51.8 °F - 51.8 °F 100% 29.85 in 10.0 mi WNW 4.6 mph - N/A   Overcast
12:06 AM 53.6 °F - 51.8 °F 94% 29.86 in 10.0 mi West 4.6 mph - N/A Rain Light Rain
12:58 AM 52.3 °F - 52.2 °F 99% 29.84 in 8.0 mi South 8.1 mph - 0.07 in Rain Rain
1:58 AM 50.9 °F - 50.9 °F 100% 29.81 in 6.0 mi South 2.3 mph - 0.16 in Rain Light Rain
2:37 AM 50.0 °F - 50.0 °F 100% 29.77 in 6.0 mi WSW 2.3 mph - N/A Rain Light Rain
2:58 AM 50.7 °F - 50.7 °F 100% 29.74 in 5.0 mi SSW 3.5 mph - 0.14 in Rain Light Rain
3:06 AM 50.0 °F - 50.0 °F 100% 29.72 in 7.0 mi SSE 4.6 mph - N/A Rain Light Rain
3:30 AM 50.0 °F - 50.0 °F 100% 29.70 in 10.0 mi ESE 2.3 mph - N/A   Overcast
3:31 AM 50.0 °F - 50.0 °F 100% 29.70 in 10.0 mi ESE 1.2 mph - N/A Rain Light Rain
3:51 AM 50.0 °F - 50.0 °F 100% 29.70 in 5.0 mi West 4.6 mph - N/A Rain Rain
3:54 AM 50.0 °F - 50.0 °F 100% 29.70 in 4.0 mi West 2.3 mph - N/A Rain Light Rain
3:58 AM 50.9 °F - 50.9 °F 100% 29.71 in 4.0 mi West 2.3 mph - 0.07 in Rain Light Rain
4:28 AM 50.0 °F - 50.0 °F 100% 29.68 in 10.0 mi SSE 2.3 mph - N/A Rain Light Rain
4:33 AM 50.0 °F - 50.0 °F 100% 29.68 in 10.0 mi South 4.6 mph - N/A Rain Light Rain
4:58 AM 50.2 °F - 50.2 °F 100% 29.63 in 7.0 mi East 6.9 mph - 0.03 in Rain Light Rain
5:32 AM 51.8 °F - 51.8 °F 100% 29.59 in 10.0 mi ESE 8.1 mph - N/A   Overcast
5:58 AM 51.4 °F - 51.4 °F 100% 29.59 in 10.0 mi SSE 11.5 mph 17.3 mph 0.00 in   Overcast
6:58 AM 53.4 °F - 51.3 °F 92% 29.56 in 10.0 mi South 18.4 mph 27.6 mph N/A   Overcast
7:16 AM 53.6 °F - 51.8 °F 94% 29.55 in 10.0 mi South 18.4 mph 28.8 mph N/A Rain Light Rain
7:29 AM 53.6 °F - 51.8 °F 94% 29.55 in 10.0 mi South 21.9 mph 28.8 mph N/A   Overcast
7:32 AM 53.6 °F - 51.8 °F 94% 29.55 in 10.0 mi South 23.0 mph 32.2 mph N/A Rain Light Rain
7:42 AM 53.6 °F - 51.8 °F 94% 29.56 in 9.0 mi SSW 20.7 mph 34.5 mph N/A Rain Light Rain
7:56 AM 51.8 °F - 51.8 °F 100% 29.57 in 10.0 mi SSW 20.7 mph 29.9 mph N/A   Overcast
7:58 AM 51.8 °F - 51.8 °F 100% 29.58 in 10.0 mi SSW 21.9 mph 29.9 mph 0.03 in   Overcast
7:59 AM 51.8 °F - 51.8 °F 100% 29.58 in 10.0 mi SSW 21.9 mph 29.9 mph N/A Rain Light Rain
8:08 AM 51.8 °F - 50.0 °F 94% 29.58 in 10.0 mi SSW 24.2 mph 32.2 mph N/A   Overcast
8:13 AM 51.8 °F - 50.0 °F 94% 29.58 in 10.0 mi SW 23.0 mph 31.1 mph N/A   Overcast
8:20 AM 50.0 °F - 48.2 °F 94% 29.59 in 10.0 mi SSW 24.2 mph 32.2 mph N/A Rain Light Rain
8:25 AM 50.0 °F - 50.0 °F 100% 29.59 in 9.0 mi SW 23.0 mph 32.2 mph N/A Rain Light Rain
8:35 AM 50.0 °F - 50.0 °F 100% 29.61 in 7.0 mi SSW 23.0 mph 29.9 mph N/A Rain Light Rain
8:52 AM 50.0 °F - 48.2 °F 94% 29.61 in 9.0 mi SSW 23.0 mph 32.2 mph N/A   Mostly Cloudy
8:57 AM 50.0 °F - 48.2 °F 94% 29.62 in 10.0 mi SSW 21.9 mph 32.2 mph N/A   Mostly Cloudy
8:58 AM 50.0 °F - 48.2 °F 94% 29.64 in 10.0 mi SSW 21.9 mph 32.2 mph 0.01 in   Mostly Cloudy
9:03 AM 50.0 °F - 48.2 °F 94% 29.61 in 10.0 mi SSW 24.2 mph 34.5 mph N/A   Mostly Cloudy
9:08 AM 50.0 °F - 48.2 °F 94% 29.62 in 10.0 mi SSW 25.3 mph 34.5 mph N/A   Mostly Cloudy
9:58 AM 49.1 °F - 46.6 °F 91% 29.65 in 10.0 mi SSW 21.9 mph 31.1 mph N/A   Overcast
10:36 AM 48.2 °F - 46.4 °F 93% 29.65 in 10.0 mi SSW 25.3 mph 33.4 mph N/A Rain Light Rain
10:45 AM 48.2 °F - 46.4 °F 93% 29.66 in 10.0 mi SSW 24.2 mph 36.8 mph N/A   Overcast
10:58 AM 48.4 °F - 46.4 °F 93% 29.68 in 10.0 mi SSW 24.2 mph 33.4 mph 0.00 in   Overcast
11:01 AM 48.2 °F - 46.4 °F 93% 29.67 in 10.0 mi SSW 20.7 mph 33.4 mph N/A Rain Light Rain
11:06 AM 48.2 °F - 46.4 °F 93% 29.67 in 10.0 mi SSW 21.9 mph 33.4 mph N/A Rain Light Rain
11:11 AM 48.2 °F - 46.4 °F 93% 29.67 in 9.0 mi SSW 24.2 mph 33.4 mph N/A Rain Light Rain
11:16 AM 48.2 °F - 46.4 °F 93% 29.68 in 9.0 mi SSW 21.9 mph 33.4 mph N/A Rain Light Rain
11:32 AM 48.2 °F - 46.4 °F 93% 29.68 in 10.0 mi SSW 24.2 mph 35.7 mph N/A   Overcast
11:45 AM 48.2 °F - 46.4 °F 93% 29.69 in 10.0 mi SSW 23.0 mph 38.0 mph N/A   Light Drizzle
11:50 AM 48.2 °F - 46.4 °F 93% 29.70 in 8.0 mi SSW 25.3 mph 33.4 mph N/A   Light Drizzle
11:55 AM 48.2 °F - 46.4 °F 93% 29.70 in 7.0 mi SSW 20.7 mph 33.4 mph N/A   Overcast
11:56 AM 48.2 °F - 46.4 °F 93% 29.70 in 6.0 mi SSW 23.0 mph 33.4 mph N/A Rain Light Rain
11:58 AM 48.2 °F - 46.4 °F 93% 29.72 in 6.0 mi SSW 24.2 mph 33.4 mph 0.00 in Rain Light Rain
12:16 PM 48.2 °F - 46.4 °F 93% 29.71 in 10.0 mi SSW 25.3 mph 32.2 mph N/A   Overcast
12:26 PM 48.2 °F - 46.4 °F 93% 29.72 in 10.0 mi SSW 21.9 mph 29.9 mph N/A   Overcast
12:45 PM 48.2 °F - 46.4 °F 93% 29.73 in 10.0 mi SSW 25.3 mph 31.1 mph N/A Rain Light Rain
12:50 PM 48.2 °F - 46.4 °F 93% 29.74 in 10.0 mi SSW 18.4 mph 33.4 mph N/A Rain Light Rain
12:55 PM 48.2 °F - 46.4 °F 93% 29.74 in 10.0 mi SW 23.0 mph 33.4 mph N/A Rain Light Rain
12:57 PM 48.2 °F - 46.4 °F 93% 29.74 in 10.0 mi SSW 23.0 mph 32.2 mph N/A   Overcast
12:58 PM 48.4 °F - 46.6 °F 93% 29.75 in 10.0 mi SW 23.0 mph 32.2 mph 0.00 in   Overcast
1:08 PM 50.0 °F - 46.4 °F 87% 29.74 in 10.0 mi SSW 16.1 mph 34.5 mph N/A   Overcast
1:28 PM 50.0 °F - 44.6 °F 82% 29.76 in 10.0 mi SW 25.3 mph 34.5 mph N/A   Overcast
1:58 PM 51.6 °F - 44.4 °F 76% 29.78 in 10.0 mi SW 21.9 mph 33.4 mph 0.01 in   Scattered Clouds
2:58 PM 51.4 °F - 40.3 °F 66% 29.81 in 10.0 mi WSW 20.7 mph 36.8 mph N/A   Mostly Cloudy
3:58 PM 51.6 °F - 40.1 °F 65% 29.85 in 10.0 mi SW 26.5 mph 39.1 mph N/A   Scattered Clouds
4:58 PM 51.4 °F - 38.3 °F 61% 29.86 in 10.0 mi SW 27.6 mph 35.7 mph N/A   Scattered Clouds
5:58 PM 48.4 °F - 37.2 °F 65% 29.86 in 10.0 mi SW 25.3 mph 29.9 mph N/A   Clear
6:58 PM 46.8 °F - 37.9 °F 71% 29.88 in 10.0 mi SW 16.1 mph 25.3 mph N/A   Clear
7:58 PM 46.2 °F 39.0 °F 37.6 °F 72% 29.90 in 10.0 mi SW 18.4 mph 24.2 mph N/A   Clear
8:58 PM 45.0 °F 38.5 °F 37.6 °F 75% 29.91 in 10.0 mi SSW 13.8 mph - N/A   Partly Cloudy
9:58 PM 44.8 °F 37.4 °F 39.0 °F 80% 29.91 in 10.0 mi SSW 17.3 mph 23.0 mph N/A   Scattered Clouds
10:58 PM 44.2 °F 38.4 °F 38.7 °F 81% 29.92 in 10.0 mi SSW 11.5 mph 23.0 mph N/A   Clear
11:58 PM 44.1 °F 39.5 °F 39.4 °F 84% 29.93 in 10.0 mi SSW 8.1 mph - N/A   Partly Cloudy